Location: Mahannah Oil Field
(37.4664°N, 96.6003°W)
Time: 14:47:30
(UTC+00:00)

Altair - Pass Details

Date: 25 January 2021
Orbit: 1501 x 1682 km, 47.2° (Epoch: 05 March)

Event Time Altitude Azimuth Distance (km) Brightness Sun altitude
Exits shadow 08:36:09 16° 99° (E) 3,410 9.5 -58.4°
Drops below altitude 10° 08:39:13 10° 83° (E) 3,919 9.9 -57.8°
Sets 08:43:33 0° 67° (ENE) 4,927 10.7 -57.1°
